Wind_Speed
37 38 38 39 39 39 40 42 42 43 43 44 44 44 44 44 44 44 43 43 43 44 45 46 46 48 47 46 45 46 47 47 47 46 46 47 47 48 48 48 47 47 47
37 38 39 39 39 39 39 40 42 43 43 43 44 44 44 44 45 45 45 44 44 45 46 46 46 46 45 44 45 46 47 48 48 47 47 47 48 48 48 49 48 47 47
37 38 38 38 38 38 38 39 41 42 43 44 45 45 45 44 44 44 45 45 45 45 46 46 45 45 45 45 46 46 47 47 48 48 47 47 48 48 48 47 46 47 47
37 38 38 37 38 39 40 40 40 41 41 41 43 44 44 45 45 45 45 44 44 44 45 45 45 45 45 45 45 45 46 46 47 47 47 47 47 48 47 46 45 45 46
38 38 39 40 39 39 39 40 40 40 40 41 41 42 43 43 43 44 43 43 43 43 43 43 43 43 43 43 43 44 44 45 46 46 45 45 46 46 46 46 45 45 45
38 39 38 38 39 40 39 39 39 39 39 40 41 42 42 42 42 43 42 42 42 41 40 41 41 41 41 42 43 43 43 44 44 45 45 45 45 44 44 45 45 44 43
36 37 37 38 39 39 39 39 39 39 39 39 40 41 40 40 41 41 40 40 39 39 39 39 39 38 39 40 41 42 42 42 43 43 44 44 43 43 43 43 43 43 42
37 37 37 37 38 39 39 39 38 38 37 37 38 38 39 39 39 39 40 39 38 38 38 39 39 38 38 39 39 40 40 40 41 41 41 41 40 40 41 41 41 41 41
36 37 36 36 36 37 38 38 38 37 37 37 37 37 38 38 38 38 38 37 37 37 37 38 38 38 38 38 38 38 38 38 38 39 39 38 39 40 40 39 39 38 38
33 34 35 35 36 37 37 37 37 37 37 37 36 35 35 35 35 36 37 36 37 37 37 36 37 36 36 37 37 37 37 36 37 38 38 38 39 38 38 38 37 37 36
31 33 34 34 35 36 37 37 36 37 37 36 35 35 35 35 34 34 35 36 36 36 36 36 36 36 37 37 36 36 36 36 37 37 36 36 37 36 35 35 35 34 34
29 30 32 33 34 35 36 36 36 36 36 36 36 35 34 33 33 32 32 33 34 34 35 36 37 37 37 36 35 35 35 35 35 35 34 34 34 33 33 32 32 31 32
29 30 31 32 33 34 35 35 35 34 34 35 34 33 33 32 32 32 31 32 32 33 34 35 36 36 35 34 35 36 36 35 34 33 32 31 31 30 29 30 30 30 32
30 30 31 32 32 33 33 34 33 34 34 33 33 32 32 32 32 32 31 31 32 33 34 34 35 35 34 34 34 35 35 34 33 32 30 30 29 28 28 29 29 30 29
30 30 30 31 32 33 33 34 35 35 34 33 32 31 32 32 32 32 32 31 31 32 33 33 33 34 33 33 32 33 33 32 31 31 30 29 28 28 28 28 28 28 27
29 29 29 30 31 32 32 33 33 33 33 32 33 32 31 31 31 31 32 32 32 31 31 31 30 31 31 31 31 31 30 30 29 29 28 28 27 27 27 27 26 25 25
27 27 27 28 29 30 30 29 29 30 31 31 32 32 31 31 31 32 32 33 32 31 30 29 30 30 30 30 30 30 29 28 27 26 26 26 26 25 25 25 25 24 23
28 27 27 28 29 29 28 29 29 30 30 30 30 30 30 31 31 31 31 30 30 29 29 29 29 29 29 29 29 28 27 27 26 25 24 24 24 23 23 23 23 22 21
27 27 28 28 29 29 29 29 29 29 28 28 29 29 30 30 30 29 29 29 29 28 28 27 27 27 27 27 27 27 26 26 25 24 23 22 22 22 22 22 21 20 20
25 25 25 26 26 27 27 27 27 27 27 27 27 28 28 28 28 28 28 28 27 27 26 26 26 26 26 26 25 24 24 23 23 22 22 22 22 22 22 21 20 19 18
23 24 25 25 25 26 27 27 27 27 27 27 27 27 27 26 26 26 27 27 26 26 25 25 24 24 24 23 22 21 21 21 21 20 20 21 21 21 21 20 19 17 16
23 24 24 25 25 25 26 26 26 27 26 26 26 27 26 25 25 25 24 24 24 24 24 23 23 23 23 21 20 19 19 18 18 19 19 19 19 19 18 17 16 15 14
22 22 22 22 22 23 23 24 24 25 24 24 24 24 24 23 23 23 23 23 23 23 23 23 23 22 21 20 19 18 17 17 17 17 17 17 17 16 15 14 13 12 11
20 20 20 20 21 21 21 21 21 22 23 22 22 22 21 20 20 21 22 22 22 22 22 21 20 20 19 18 18 17 16 16 16 16 16 16 15 14 13 12 11 10 10
19 18 18 18 18 19 19 19 20 20 20 20 20 20 20 19 19 20 20 21 21 21 21 19 18 17 17 17 16 16 16 16 15 15 15 15 14 13 12 11 10 10 9
17 16 16 16 16 16 17 17 17 17 18 18 18 18 19 19 19 20 20 20 20 19 18 17 16 15 15 15 15 15 15 15 14 14 14 13 13 12 11 10 10 9 8
Wind_Direction
241 243 246 246 247 248 251 251 251 252 253 254 255 256 258 261 263 265 266 268 270 272 272 272 274 276 277 279 279 280 281 282 284 285 287 288 290 292 292 291 290 290 292
243 245 247 248 248 250 252 253 253 254 254 254 255 258 259 261 263 265 266 267 270 272 272 271 273 275 276 278 279 281 282 282 284 285 286 287 289 290 292 291 290 290 291
245 248 250 250 250 251 252 254 256 256 256 256 257 259 260 262 263 265 266 267 269 271 271 271 272 273 275 277 278 280 281 283 284 285 285 287 288 289 290 289 288 289 290
247 247 249 251 252 254 254 255 256 256 258 258 259 260 261 262 263 263 265 266 268 268 269 270 271 273 275 276 279 280 281 284 285 286 287 287 288 289 289 287 286 288 290
249 250 250 252 254 255 255 255 256 258 258 259 260 261 262 262 262 263 265 266 267 269 269 270 271 273 276 277 279 280 282 283 285 287 288 288 289 289 287 286 286 288 290
251 251 252 252 254 256 258 257 258 260 261 261 261 263 264 263 262 263 265 267 268 268 269 271 272 274 275 277 279 281 282 285 286 288 288 289 289 288 288 288 288 289 291
251 252 252 254 256 257 258 259 259 261 262 262 261 262 262 262 264 265 265 266 267 269 269 269 271 273 276 278 279 280 282 285 286 287 289 289 289 288 288 289 290 291 292
252 253 254 254 255 257 258 260 262 261 260 262 263 263 263 263 264 263 264 264 266 268 269 269 270 272 275 278 279 280 282 284 285 287 289 289 288 288 289 289 291 291 292
255 254 254 255 256 258 259 260 262 262 262 263 266 266 265 266 266 263 262 263 264 266 269 272 272 273 274 275 277 281 283 285 286 287 288 288 288 290 290 290 290 290 292
257 256 256 257 258 259 262 263 263 262 263 264 265 267 268 268 267 265 263 263 264 266 269 272 273 272 273 275 278 281 283 285 286 287 288 288 290 291 292 292 291 292 294
260 258 259 258 259 259 261 262 262 261 262 263 264 267 267 267 267 265 264 263 264 266 267 270 272 273 274 276 279 282 284 285 286 288 288 289 290 291 291 292 293 294 295
263 262 261 260 261 261 261 261 262 262 262 262 264 266 265 265 266 265 265 265 264 266 268 270 272 274 275 276 278 281 283 284 287 288 288 290 292 291 292 294 295 296 298
265 266 266 265 264 263 262 262 263 262 262 262 261 263 263 263 263 264 265 266 266 267 270 271 273 274 276 277 279 281 282 284 287 289 290 291 293 293 294 296 296 297 300
267 268 268 268 267 265 263 262 261 262 263 262 261 261 261 262 261 263 265 267 267 269 271 272 273 273 275 277 279 281 282 284 286 288 289 291 293 296 298 298 298 300 301
268 269 269 268 267 266 265 262 261 261 262 262 260 259 259 261 261 263 266 268 269 270 270 272 273 272 273 276 278 280 283 284 286 287 287 290 293 296 298 298 298 301 302
269 268 268 268 266 266 265 263 262 261 260 260 258 257 256 258 260 264 266 268 270 272 272 273 274 273 273 274 277 280 283 284 285 287 288 290 293 294 296 298 298 300 302
268 268 267 266 265 265 264 264 263 262 260 259 256 256 256 257 260 263 267 269 271 273 273 273 274 275 273 273 275 278 280 281 283 286 287 289 292 293 295 297 298 299 301
268 267 266 265 265 265 266 265 263 262 261 259 256 255 257 259 261 263 266 270 272 272 273 274 275 275 273 274 275 276 277 279 283 285 286 288 291 294 296 299 300 299 300
268 268 267 265 264 264 263 263 262 260 259 257 255 254 256 257 259 262 267 269 270 272 273 274 274 273 274 274 275 275 276 278 280 282 285 287 289 293 296 299 299 298 299
267 268 269 268 266 263 263 263 261 259 258 257 256 255 256 258 260 263 265 267 268 270 272 273 273 273 273 274 274 274 275 276 278 282 284 287 289 291 293 295 296 296 296
269 271 271 271 269 267 265 263 260 258 258 258 257 255 256 258 260 262 263 265 266 267 270 272 273 273 272 270 270 272 273 275 278 281 284 286 288 289 291 291 290 291 292
270 271 272 273 270 267 264 261 258 257 258 258 257 258 258 259 258 260 261 261 261 264 268 270 270 270 268 265 265 267 271 274 277 280 281 283 285 288 289 288 287 288 288
271 272 272 272 269 265 263 260 257 256 256 256 257 257 259 260 257 258 259 260 260 263 265 267 267 266 263 261 261 264 268 272 274 277 279 283 285 287 287 286 285 286 286
273 273 271 269 267 264 262 261 258 256 255 255 256 257 259 260 259 258 259 258 257 260 263 264 263 261 258 257 257 259 264 268 271 274 278 282 286 285 282 282 283 284 284
272 271 268 266 265 263 263 261 259 257 255 255 255 256 258 259 259 259 259 259 261 262 261 260 257 256 254 254 254 256 260 265 269 272 275 279 281 281 278 278 279 279 280
270 270 268 266 265 264 262 261 259 257 256 255 255 257 258 258 258 260 261 262 262 261 258 254 250 251 252 251 252 256 260 263 266 270 272 273 274 275 274 273 274 273 272
Height
5635 5639 5642 5645 5648 5650 5653 5656 5658 5660 5661 5663 5665 5666 5668 5669 5670 5671 5671 5671 5671 5671 5671 5670 5670 5669 5668 5666 5664 5663 5661 5659 5657 5656 5653 5650 5646 5642 5638 5634 5630 5626 5623
5627 5630 5634 5636 5639 5641 5644 5646 5647 5649 5651 5652 5654 5655 5657 5658 5659 5659 5660 5660 5660 5660 5659 5659 5658 5657 5656 5654 5653 5651 5649 5647 5645 5643 5641 5637 5634 5630 5626 5622 5618 5614 5611
5619 5622 5624 5627 5629 5632 5634 5636 5637 5639 5640 5641 5643 5644 5646 5647 5647 5648 5649 5649 5649 5648 5648 5647 5647 5645 5644 5643 5641 5639 5637 5635 5632 5630 5628 5625 5621 5617 5614 5610 5606 5602 5598
5610 5612 5614 5617 5620 5622 5624 5625 5626 5628 5629 5630 5632 5633 5634 5635 5636 5637 5637 5637 5637 5636 5636 5636 5635 5634 5633 5631 5629 5627 5624 5622 5619 5617 5614 5612 5609 5605 5601 5598 5594 5590 5586
5600 5603 5605 5608 5610 5612 5614 5615 5616 5617 5618 5619 5621 5622 5622 5623 5624 5625 5625 5625 5625 5625 5624 5624 5623 5622 5621 5618 5616 5614 5612 5609 5607 5604 5602 5600 5597 5593 5589 5586 5582 5579 5575
5591 5593 5595 5598 5600 5602 5604 5605 5606 5607 5607 5608 5609 5610 5611 5612 5613 5613 5614 5614 5614 5613 5613 5612 5612 5610 5608 5606 5604 5602 5599 5597 5595 5592 5590 5587 5585 5581 5577 5573 5570 5567 5564
5581 5583 5586 5588 5590 5592 5593 5594 5596 5596 5597 5598 5598 5599 5600 5601 5602 5602 5602 5602 5602 5602 5602 5602 5601 5599 5597 5596 5594 5591 5588 5585 5583 5581 5577 5575 5572 5570 5566 5562 5558 5554 5551
5572 5574 5576 5578 5580 5582 5583 5584 5585 5586 5587 5588 5588 5589 5589 5590 5591 5591 5592 5592 5592 5592 5592 5591 5590 5589 5587 5586 5583 5581 5578 5575 5572 5569 5566 5564 5560 5557 5554 5550 5546 5543 5539
5561 5563 5566 5568 5570 5571 5573 5574 5575 5576 5577 5577 5578 5578 5579 5579 5580 5580 5581 5581 5582 5583 5582 5581 5580 5579 5577 5576 5573 5571 5569 5565 5562 5559 5556 5553 5550 5546 5543 5539 5535 5532 5529
5552 5554 5556 5558 5560 5561 5563 5564 5565 5566 5566 5567 5568 5568 5569 5569 5569 5569 5570 5571 5572 5573 5573 5572 5571 5568 5567 5565 5563 5561 5559 5556 5553 5550 5547 5543 5540 5536 5532 5529 5525 5522 5519
5543 5544 5546 5547 5549 5550 5552 5553 5554 5555 5555 5556 5557 5558 5558 5559 5559 5560 5560 5561 5562 5562 5562 5562 5561 5559 5557 5555 5554 5552 5550 5547 5544 5541 5538 5534 5531 5527 5523 5520 5516 5513 5510
5534 5535 5536 5537 5538 5540 5541 5542 5543 5544 5545 5546 5547 5548 5548 5549 5549 5550 5550 5551 5551 5552 5552 5552 5550 5549 5547 5545 5544 5543 5540 5538 5535 5532 5529 5526 5522 5519 5515 5512 5508 5505 5502
5525 5526 5526 5527 5528 5529 5530 5531 5532 5534 5535 5536 5536 5537 5538 5539 5540 5540 5541 5541 5542 5542 5542 5541 5540 5539 5538 5536 5535 5533 5531 5529 5526 5524 5521 5518 5514 5511 5508 5505 5501 5498 5494
5516 5516 5517 5517 5518 5519 5519 5521 5522 5523 5524 5525 5526 5527 5528 5530 5530 5531 5532 5532 5532 5532 5532 5531 5531 5529 5528 5527 5526 5524 5522 5520 5518 5515 5513 5510 5508 5505 5502 5498 5495 5491 5488
5507 5507 5507 5507 5508 5509 5509 5510 5511 5513 5514 5515 5516 5517 5519 5520 5521 5522 5522 5523 5523 5523 5523 5522 5521 5520 5519 5518 5517 5515 5513 5512 5510 5508 5506 5504 5501 5499 5496 5493 5490 5486 5482
5497 5498 5498 5498 5498 5499 5499 5500 5500 5501 5502 5504 5505 5507 5509 5510 5511 5512 5513 5513 5513 5513 5513 5512 5511 5510 5510 5509 5509 5507 5506 5504 5503 5501 5499 5497 5495 5492 5490 5487 5484 5481 5477
5489 5488 5489 5489 5490 5490 5490 5490 5491 5491 5492 5494 5496 5497 5499 5501 5502 5503 5503 5503 5503 5503 5503 5502 5502 5501 5501 5501 5500 5499 5498 5497 5495 5494 5492 5490 5488 5486 5484 5482 5479 5475 5472
5480 5480 5480 5481 5481 5481 5481 5481 5482 5483 5484 5485 5486 5488 5490 5491 5492 5493 5493 5493 5494 5494 5494 5494 5493 5493 5492 5492 5492 5491 5490 5489 5488 5487 5486 5484 5482 5480 5478 5476 5473 5470 5467
5471 5471 5471 5471 5471 5472 5472 5473 5473 5474 5475 5476 5477 5479 5480 5481 5482 5483 5484 5484 5485 5485 5485 5485 5485 5484 5484 5484 5483 5483 5483 5482 5481 5480 5479 5478 5476 5475 5473 5470 5468 5465 5463
5463 5463 5462 5462 5462 5463 5463 5464 5464 5465 5466 5467 5469 5470 5471 5472 5473 5474 5475 5475 5476 5476 5476 5476 5476 5476 5476 5476 5475 5475 5475 5475 5474 5474 5473 5472 5470 5469 5467 5465 5463 5461 5459
5455 5455 5454 5454 5454 5454 5454 5455 5456 5457 5458 5459 5460 5461 5462 5464 5465 5466 5466 5467 5467 5468 5468 5468 5468 5468 5468 5468 5468 5468 5468 5468 5468 5467 5466 5465 5464 5463 5461 5459 5458 5456 5454
5447 5447 5446 5446 5445 5445 5445 5446 5447 5448 5449 5451 5452 5453 5454 5455 5456 5457 5458 5458 5459 5460 5460 5460 5460 5460 5460 5461 5461 5461 5462 5462 5462 5461 5460 5459 5458 5457 5456 5454 5453 5452 5450
5440 5439 5438 5438 5437 5437 5437 5438 5439 5440 5441 5442 5444 5445 5446 5447 5448 5449 5450 5450 5451 5452 5452 5452 5453 5453 5453 5453 5454 5455 5456 5456 5456 5455 5455 5454 5453 5452 5451 5450 5449 5448 5447
5432 5432 5431 5430 5430 5429 5430 5430 5431 5432 5434 5435 5437 5438 5439 5440 5441 5442 5442 5443 5443 5444 5444 5445 5445 5446 5446 5447 5448 5449 5449 5450 5450 5450 5450 5449 5448 5447 5447 5446 5445 5444 5444
5425 5424 5424 5423 5423 5423 5423 5424 5424 5425 5427 5429 5430 5431 5433 5434 5434 5435 5435 5436 5436 5437 5437 5438 5439 5439 5440 5441 5442 5443 5444 5444 5445 5445 5444 5444 5444 5443 5443 5442 5442 5441 5441
5419 5418 5417 5417 5417 5417 5417 5418 5418 5419 5421 5422 5424 5425 5426 5427 5428 5428 5429 5429 5430 5430 5431 5431 5433 5434 5435 5435 5437 5438 5439 5439 5440 5440 5440 5440 5440 5440 5439 5439 5439 5439 5438